OPS 4682 DEB, 38386

Orbit data source: Space-Track

OPS 4682 DEB, 38386 is space debris in LEO originally from a launch on Sat, 03 Apr 1965 UTC launched from the Air Force Western Test Range (AFWTR). Debris objects in space refer to the collection of defunct objects orbiting the Earth. Examples of debris include non-operational satellites, rocket bodies, and fragments generated from explosions, collisions, or faulty payload assembly.

Loading next visibility...
Identifier
38386, 1965-027CP
Orbit
LEO
Country
Flag of USUS
Related business
Manufacturer
Unknown
Mission
Spacecraft
Bus & Motor
Unknown
Mass
Unknown
Launch date (UTC)
1965-04-03 (61 years ago)
Launch vehicle
Unknown
Launch site
Air Force Western Test Range (AFWTR)
Object type
Payload
Rocket body
Debris
Shape & HBR
Unknown shape, 0.1 m
Radar Cross Section
Medium (>0.1 m² and <1 m²)

Expand to show TLE details & history
Last TLE update: 1 day ago

TLE from 1 day ago
0 OPS 4682 DEB
1 38386U 65027CP  26174.06149709  .00001040  00000-0  33611-2 0  9995
2 38386  90.2874  34.1278 0030429 195.4408 164.5789 13.01307610658432
Epoch: 2026-06-23T01:28Z
TLE epoch observation values (Epoch: 2026-06-23T01:28:33.348Z)
Latitude
-0.00007°
Longitude
100.75038°
Altitude
1,282.259 km
Speed
7.204 km/s
True Right ascension
02h 16m 30s
True Declination
0° 00' 00"
Sunlit
Object was in daylight at epoch
Visualization orbit readout
Latitude
Unknown
Longitude
Unknown
Altitude
Unknown
Speed
Unknown
Apparent Right ascension
Unknown
Apparent Declination
Unknown
Sunlit
N/A
Visualization observer readout
Local Sidereal Time
19:26:35
Azimuth
Unknown
Elevation
Unknown
Doppler factor
Unknown
Orbital elements
Apogee altitude
1,277.317 km
Perigee altitude
1,230.869 km
Semi-major axis
7,632.23 km
Eccentricity
0.00304
Inclination
90.2874°
RAAN
34.1278°
Arg. of periapsis
195.4408°
True anomaly
164.67128°
Mean anomaly
164.5789°
Eccentric anomaly
164.62512°
Mean motion
3.25511 °/min
Orbital period
110.6 mins
BSTAR
0.0033611
Loading maneuver chart data...
Computing Atmospheric mass density...
Loading historical data...
Loading historical data...
Loading historical data...
Loading historical data...
Loading historical data...
Loading historical data...
Loading historical data...

Documentation

Showing up to 5 results
|